Home   Weather   Sumqayit   Past weeks

Flag for Azerbaijan Past Weather in Sumqayit, Azerbaijan — Yesterday and Last 2 Weeks

45 °F

Sprinkles. Mostly cloudy.

Feels Like: 40 °F
Forecast: 44 / 55 °F
Wind: 8 mph from Northeast

Location: Baku / Bine Airport

Current Time: Oct 26, 2016 at 4:36:45 AM

Latest Report: Oct 26, 2016 at 4:00 AM

Visibility: N/A

Pressure: 30.48 "Hg

Humidity: 76%

Dew Point: 37 °F

Location of SumqayitLocation

Past Weather in Sumqayit — Graph


Sumqayit Temperature Yesterday

Maximum temperature yesterday: 46 °F (at 12:00 AM)
Minimum temperature yesterday: 45 °F (at 4:30 PM)
Average temperature yesterday: 46 °F

High & Low Weather Summary for the Past Weeks

High68 °F (Oct 14, 12:30 PM)100% (Oct 11, 10:00 PM)30.57 "Hg (Oct 11, 10:00 PM)
Low45 °F (Oct 25, 4:30 PM)58% (Oct 24, 3:00 PM)29.83 "Hg (Oct 14, 2:30 PM)
Average54 °F79%30.27 "Hg
* Reported Oct 11 3:00 AM — Oct 26 3:00 AM, Sumqayit, Weather by CustomWeather, © 2016

Note: Actual official high and low records may vary slightly from our data, if they occured in-between our weather recording intervals... More about our weather records


Sumqayit Weather History for the Previous 24 Hours

Scroll right to see more
Time TempWeatherWind HumidityBarometerVisibility
3:00 AM
Wed, Oct 26
45 °FSprinkles. Mostly cloudy.8 mph81%30.51 "HgN/A
2:30 AM45 °FSprinkles. Mostly cloudy.12 mph81%30.51 "HgN/A
2:00 AM45 °FSprinkles. Mostly cloudy.13 mph76%30.51 "HgN/A
1:30 AM45 °FLight rain. Mostly cloudy.13 mph71%30.51 "HgN/A
1:00 AM45 °FMostly cloudy.14 mph71%30.51 "HgN/A
12:30 AM46 °FMostly cloudy.14 mph62%30.54 "HgN/A
12:00 AM46 °FMostly cloudy.14 mph62%30.54 "HgN/A
11:30 PM
Tue, Oct 25
46 °FMostly cloudy.15 mph62%30.54 "HgN/A
11:00 PM45 °FMostly cloudy.14 mph61%30.54 "HgN/A
10:30 PM45 °FMostly cloudy.16 mph61%30.57 "HgN/A
10:00 PM45 °FMostly cloudy.13 mph61%30.57 "HgN/A
9:30 PM45 °FMostly cloudy.13 mph61%30.57 "HgN/A
9:00 PM45 °FMostly cloudy.15 mph61%30.57 "HgN/A
8:30 PM45 °FMostly cloudy.14 mph66%30.57 "HgN/A
8:00 PM45 °FMostly cloudy.12 mph66%30.57 "HgN/A
7:30 PM45 °FMostly cloudy.15 mph61%30.57 "HgN/A
7:00 PM45 °FMostly cloudy.16 mph66%30.57 "HgN/A
6:30 PM45 °FMostly cloudy.15 mph66%30.57 "HgN/A
6:00 PM45 °FMostly cloudy.15 mph61%30.57 "HgN/A
5:30 PM45 °FMostly cloudy.15 mph66%30.54 "HgN/A
5:00 PM45 °FMostly cloudy.15 mph66%30.57 "HgN/A
4:30 PM45 °FMostly cloudy.17 mph66%30.57 "HgN/A
4:00 PM46 °FMostly cloudy.18 mph62%30.54 "HgN/A
3:30 PM46 °FMostly cloudy.18 mph62%30.54 "HgN/A
3:00 PM46 °FOvercast.17 mph62%30.57 "HgN/A
2:30 PM46 °FOvercast.17 mph66%30.54 "HgN/A
2:00 PM46 °FOvercast.16 mph66%30.57 "HgN/A
1:30 PM46 °FOvercast.16 mph66%30.57 "HgN/A
1:00 PM46 °FMostly cloudy.17 mph62%30.57 "HgN/A
12:30 PM46 °FMostly cloudy.17 mph66%30.57 "HgN/A
12:00 PM46 °FMostly cloudy.16 mph66%30.57 "HgN/A
11:30 AM46 °FMostly cloudy.16 mph66%30.57 "HgN/A
11:00 AM46 °FMostly cloudy.16 mph62%30.57 "HgN/A
10:30 AM46 °FMostly cloudy.17 mph66%30.57 "HgN/A
10:00 AM46 °FMostly cloudy.16 mph62%30.57 "HgN/A
9:30 AM46 °FMostly cloudy.16 mph62%30.57 "HgN/A
9:00 AM46 °FMostly cloudy.15 mph62%30.57 "HgN/A
8:30 AM46 °FMostly cloudy.15 mph62%30.54 "HgN/A
8:00 AM46 °FMostly cloudy.15 mph62%30.54 "HgN/A
7:30 AM46 °FMostly cloudy.14 mph62%30.54 "HgN/A
7:00 AM46 °FMostly cloudy.15 mph62%30.54 "HgN/A
6:30 AM46 °FMostly cloudy.14 mph62%30.51 "HgN/A
6:00 AM46 °FMostly cloudy.16 mph62%30.51 "HgN/A
5:30 AM46 °FMostly cloudy.15 mph62%30.51 "HgN/A
5:00 AM46 °FMostly cloudy.15 mph62%30.51 "HgN/A
4:30 AM46 °FMostly cloudy.16 mph62%30.51 "HgN/A
4:00 AM46 °FMostly cloudy.15 mph62%30.51 "HgN/A
Weather by CustomWeather, © 2016

See weather overviewHow to use our weather pages